Location: El Águila
(10.4167°N, 66.7167°W)
Time: 18:57:34
(UTC+00:00)

SWIFT - Pass Details

Date: 07 April 2023
Orbit: 527 x 541 km, 20.6° (Epoch: 30 May)

Event Time Altitude Azimuth Distance (km) Brightness Sun altitude
Rises 23:37:35 0° 294° (WNW) 2,639 7.4 -15.4°
Reaches altitude 10° 23:40:21 10° 312° (NW) 1,750 5.8 -16.1°
Maximum altitude 23:43:17 19° 359° (N) 1,286 4.3 -16.8°
Enters shadow 23:45:27 13° 36° (NE) 1,561 4.4 -17.3°
